owner,sensor,date,latitude,longitude,vertical_datum,mass_concentration_of_oxygen_in_sea_water,qcFlag 
DISL,ioos:station:DISL:PPTA:1,2013-11-01T00:00:00Z,30.2791,-87.5561,1.591,6.96,1111122 
DISL,ioos:station:DISL:PPTA:1,2013-11-01T00:30:00Z,30.2791,-87.5561,1.605,6.97,1111122 
DISL,ioos:station:DISL:PPTA:1,2013-11-01T01:00:00Z,30.2791,-87.5561,1.625,6.92,1111122 
DISL,ioos:station:DISL:PPTA:1,2013-11-01T01:30:00Z,30.2791,-87.5561,1.609,6.91,1111122 
DISL,ioos:station:DISL:PPTA:1,2013-11-01T02:00:00Z,30.2791,-87.5561,1.616,6.86,1111122 
DISL,ioos:station:DISL:PPTA:1,2013-11-01T02:30:00Z,30.2791,-87.5561,1.63,6.95,1111122 
DISL,ioos:station:DISL:PPTA:1,2013-11-01T03:00:00Z,30.2791,-87.5561,1.617,6.91,1111122 
DISL,ioos:station:DISL:PPTA:1,2013-11-01T03:30:00Z,30.2791,-87.5561,1.616,6.8,1111122 
DISL,ioos:station:DISL:PPTA:1,2013-11-01T04:00:00Z,30.2791,-87.5561,1.594,6.8,1111122 
DISL,ioos:station:DISL:PPTA:1,2013-11-01T04:30:00Z,30.2791,-87.5561,1.579,6.76,1111122 
DISL,ioos:station:DISL:PPTA:1,2013-11-01T05:00:00Z,30.2791,-87.5561,1.562,6.84,1111122 
DISL,ioos:station:DISL:PPTA:1,2013-11-01T05:30:00Z,30.2791,-87.5561,1.562,6.88,1111122 
DISL,ioos:station:DISL:PPTA:1,2013-11-01T06:00:00Z,30.2791,-87.5561,1.554,6.81,1111122 
DISL,ioos:station:DISL:PPTA:1,2013-11-01T06:30:00Z,30.2791,-87.5561,1.542,6.72,1111122 
DISL,ioos:station:DISL:PPTA:1,2013-11-01T07:00:00Z,30.2791,-87.5561,1.537,6.72,1111122 
DISL,ioos:station:DISL:PPTA:1,2013-11-01T07:30:00Z,30.2791,-87.5561,1.526,6.74,1111122 
DISL,ioos:station:DISL:PPTA:1,2013-11-01T08:00:00Z,30.2791,-87.5561,1.523,6.77,1111122 
DISL,ioos:station:DISL:PPTA:1,2013-11-01T08:30:00Z,30.2791,-87.5561,1.51,6.72,1111122 
DISL,ioos:station:DISL:PPTA:1,2013-11-01T09:00:00Z,30.2791,-87.5561,1.516,6.73,1111122 
DISL,ioos:station:DISL:PPTA:1,2013-11-01T09:30:00Z,30.2791,-87.5561,1.52,6.77,1111122 
DISL,ioos:station:DISL:PPTA:1,2013-11-01T10:00:00Z,30.2791,-87.5561,1.497,6.7,1111122 
DISL,ioos:station:DISL:PPTA:1,2013-11-01T10:30:00Z,30.2791,-87.5561,1.513,6.79,1111122 
DISL,ioos:station:DISL:PPTA:1,2013-11-01T11:00:00Z,30.2791,-87.5561,1.482,6.72,1111122 
DISL,ioos:station:DISL:PPTA:1,2013-11-01T11:30:00Z,30.2791,-87.5561,1.506,6.81,1111122 
DISL,ioos:station:DISL:PPTA:1,2013-11-01T12:00:00Z,30.2791,-87.5561,1.507,6.78,1111122 
DISL,ioos:station:DISL:PPTA:1,2013-11-01T12:30:00Z,30.2791,-87.5561,1.474,6.77,1111122 
DISL,ioos:station:DISL:PPTA:1,2013-11-01T13:00:00Z,30.2791,-87.5561,1.506,6.77,1111122 
DISL,ioos:station:DISL:PPTA:1,2013-11-01T13:30:00Z,30.2791,-87.5561,1.524,6.73,1111122 
DISL,ioos:station:DISL:PPTA:1,2013-11-01T14:00:00Z,30.2791,-87.5561,1.457,6.66,1111122 
DISL,ioos:station:DISL:PPTA:1,2013-11-01T14:30:00Z,30.2791,-87.5561,1.52,6.63,1111122 
DISL,ioos:station:DISL:PPTA:1,2013-11-01T15:00:00Z,30.2791,-87.5561,1.424,6.32,1111122 
DISL,ioos:station:DISL:PPTA:1,2013-11-01T15:30:00Z,30.2791,-87.5561,1.456,6.87,1111122 
DISL,ioos:station:DISL:PPTA:1,2013-11-01T16:00:00Z,30.2791,-87.5561,1.484,7.14,1111122 
DISL,ioos:station:DISL:PPTA:1,2013-11-01T16:30:00Z,30.2791,-87.5561,1.483,7.06,1111122 
DISL,ioos:station:DISL:PPTA:1,2013-11-01T17:00:00Z,30.2791,-87.5561,1.544,7.21,1111122 
DISL,ioos:station:DISL:PPTA:1,2013-11-01T17:30:00Z,30.2791,-87.5561,1.496,7.13,1111122 
DISL,ioos:station:DISL:PPTA:1,2013-11-01T18:00:00Z,30.2791,-87.5561,1.501,7.09,1111122 
DISL,ioos:station:DISL:PPTA:1,2013-11-01T18:30:00Z,30.2791,-87.5561,1.494,6.98,1111122 
DISL,ioos:station:DISL:PPTA:1,2013-11-01T19:00:00Z,30.2791,-87.5561,1.454,6.89,1111122 
DISL,ioos:station:DISL:PPTA:1,2013-11-01T19:30:00Z,30.2791,-87.5561,1.483,7.01,1111122 
DISL,ioos:station:DISL:PPTA:1,2013-11-01T20:00:00Z,30.2791,-87.5561,1.495,6.85,1111122 
DISL,ioos:station:DISL:PPTA:1,2013-11-01T20:30:00Z,30.2791,-87.5561,1.513,6.78,1111122 
DISL,ioos:station:DISL:PPTA:1,2013-11-01T21:00:00Z,30.2791,-87.5561,1.556,6.66,1111122 
DISL,ioos:station:DISL:PPTA:1,2013-11-01T21:30:00Z,30.2791,-87.5561,1.519,6.64,1111122 
DISL,ioos:station:DISL:PPTA:1,2013-11-01T22:00:00Z,30.2791,-87.5561,1.539,6.55,1111122 
DISL,ioos:station:DISL:PPTA:1,2013-11-01T22:30:00Z,30.2791,-87.5561,1.564,6.47,1111122 
DISL,ioos:station:DISL:PPTA:1,2013-11-01T23:00:00Z,30.2791,-87.5561,1.549,6.6,1111122 
DISL,ioos:station:DISL:PPTA:1,2013-11-01T23:30:00Z,30.2791,-87.5561,1.604,6.66,1111122 
DISL,ioos:station:DISL:PPTA:1,2013-11-02T00:00:00Z,30.2791,-87.5561,1.594,6.52,1111122 
DISL,ioos:station:DISL:PPTA:1,2013-11-02T00:30:00Z,30.2791,-87.5561,1.591,6.48,1111122 
DISL,ioos:station:DISL:PPTA:1,2013-11-02T01:00:00Z,30.2791,-87.5561,1.596,6.42,1111122 
DISL,ioos:station:DISL:PPTA:1,2013-11-02T01:30:00Z,30.2791,-87.5561,1.624,6.35,1111122 
DISL,ioos:station:DISL:PPTA:1,2013-11-02T02:00:00Z,30.2791,-87.5561,1.601,6.42,1111122 
DISL,ioos:station:DISL:PPTA:1,2013-11-02T02:30:00Z,30.2791,-87.5561,1.6,6.29,1111122 
DISL,ioos:station:DISL:PPTA:1,2013-11-02T03:00:00Z,30.2791,-87.5561,1.599,6.45,1111122 
DISL,ioos:station:DISL:PPTA:1,2013-11-02T03:30:00Z,30.2791,-87.5561,1.593,6.32,1111122 
DISL,ioos:station:DISL:PPTA:1,2013-11-02T04:00:00Z,30.2791,-87.5561,1.577,6.47,1111122 
DISL,ioos:station:DISL:PPTA:1,2013-11-02T04:30:00Z,30.2791,-87.5561,1.552,6.42,1111122 
DISL,ioos:station:DISL:PPTA:1,2013-11-02T05:00:00Z,30.2791,-87.5561,1.554,6.62,1111122 
DISL,ioos:station:DISL:PPTA:1,2013-11-02T05:30:00Z,30.2791,-87.5561,1.529,6.43,1111122 
DISL,ioos:station:DISL:PPTA:1,2013-11-02T06:00:00Z,30.2791,-87.5561,1.533,6.39,1111122 
DISL,ioos:station:DISL:PPTA:1,2013-11-02T06:30:00Z,30.2791,-87.5561,1.513,6.36,1111122 
DISL,ioos:station:DISL:PPTA:1,2013-11-02T07:00:00Z,30.2791,-87.5561,1.505,6.42,1111122 
DISL,ioos:station:DISL:PPTA:1,2013-11-02T07:30:00Z,30.2791,-87.5561,1.481,6.44,1111122 
DISL,ioos:station:DISL:PPTA:1,2013-11-02T08:00:00Z,30.2791,-87.5561,1.469,6.62,1111122 
DISL,ioos:station:DISL:PPTA:1,2013-11-02T08:30:00Z,30.2791,-87.5561,1.44,6.53,1111122 
DISL,ioos:station:DISL:PPTA:1,2013-11-02T09:00:00Z,30.2791,-87.5561,1.432,6.74,1111122 
DISL,ioos:station:DISL:PPTA:1,2013-11-02T09:30:00Z,30.2791,-87.5561,1.434,6.63,1111122 
DISL,ioos:station:DISL:PPTA:1,2013-11-02T10:00:00Z,30.2791,-87.5561,1.416,6.54,1111122 
DISL,ioos:station:DISL:PPTA:1,2013-11-02T10:30:00Z,30.2791,-87.5561,1.416,6.6,1111122 
DISL,ioos:station:DISL:PPTA:1,2013-11-02T11:00:00Z,30.2791,-87.5561,1.416,6.89,1111122 
DISL,ioos:station:DISL:PPTA:1,2013-11-02T11:30:00Z,30.2791,-87.5561,1.389,6.62,1111122 
DISL,ioos:station:DISL:PPTA:1,2013-11-02T12:00:00Z,30.2791,-87.5561,1.374,6.74,1111122 
DISL,ioos:station:DISL:PPTA:1,2013-11-02T12:30:00Z,30.2791,-87.5561,1.368,6.46,1111122 
DISL,ioos:station:DISL:PPTA:1,2013-11-02T13:00:00Z,30.2791,-87.5561,1.347,6.75,1111122 
DISL,ioos:station:DISL:PPTA:1,2013-11-02T13:30:00Z,30.2791,-87.5561,1.372,7.03,1111122 
DISL,ioos:station:DISL:PPTA:1,2013-11-02T14:00:00Z,30.2791,-87.5561,1.346,6.84,1111122 
DISL,ioos:station:DISL:PPTA:1,2013-11-02T14:30:00Z,30.2791,-87.5561,1.366,7.13,1111122 
DISL,ioos:station:DISL:PPTA:1,2013-11-02T15:00:00Z,30.2791,-87.5561,1.364,7.11,1111122 
DISL,ioos:station:DISL:PPTA:1,2013-11-02T15:30:00Z,30.2791,-87.5561,1.362,7.06,1111122 
DISL,ioos:station:DISL:PPTA:1,2013-11-02T16:00:00Z,30.2791,-87.5561,1.374,7.07,1111122 
DISL,ioos:station:DISL:PPTA:1,2013-11-02T16:30:00Z,30.2791,-87.5561,1.351,6.93,1111122 
DISL,ioos:station:DISL:PPTA:1,2013-11-02T17:00:00Z,30.2791,-87.5561,1.328,6.86,1111122 
DISL,ioos:station:DISL:PPTA:1,2013-11-02T17:30:00Z,30.2791,-87.5561,1.358,6.95,1111122 
DISL,ioos:station:DISL:PPTA:1,2013-11-02T18:00:00Z,30.2791,-87.5561,1.341,7.18,1111122 
DISL,ioos:station:DISL:PPTA:1,2013-11-02T18:30:00Z,30.2791,-87.5561,1.34,7.23,1111122 
DISL,ioos:station:DISL:PPTA:1,2013-11-02T19:00:00Z,30.2791,-87.5561,1.327,7.45,1111122 
DISL,ioos:station:DISL:PPTA:1,2013-11-02T19:30:00Z,30.2791,-87.5561,1.337,7.02,1111122 
DISL,ioos:station:DISL:PPTA:1,2013-11-02T20:00:00Z,30.2791,-87.5561,1.355,6.61,1111122 
DISL,ioos:station:DISL:PPTA:1,2013-11-02T20:30:00Z,30.2791,-87.5561,1.35,6.63,1111122 
DISL,ioos:station:DISL:PPTA:1,2013-11-02T21:00:00Z,30.2791,-87.5561,1.382,6.37,1111122 
DISL,ioos:station:DISL:PPTA:1,2013-11-02T21:30:00Z,30.2791,-87.5561,1.379,6.34,1111122 
DISL,ioos:station:DISL:PPTA:1,2013-11-02T22:00:00Z,30.2791,-87.5561,1.377,6.04,1111122 
DISL,ioos:station:DISL:PPTA:1,2013-11-02T22:30:00Z,30.2791,-87.5561,1.417,6.09,1111122 
DISL,ioos:station:DISL:PPTA:1,2013-11-02T23:00:00Z,30.2791,-87.5561,1.413,5.94,1111122 
DISL,ioos:station:DISL:PPTA:1,2013-11-02T23:30:00Z,30.2791,-87.5561,1.426,5.95,1111122 
DISL,ioos:station:DISL:PPTA:1,2013-11-03T00:00:00Z,30.2791,-87.5561,1.447,5.42,1111122 
DISL,ioos:station:DISL:PPTA:1,2013-11-03T00:30:00Z,30.2791,-87.5561,1.441,5.52,1111122 
DISL,ioos:station:DISL:PPTA:1,2013-11-03T01:00:00Z,30.2791,-87.5561,1.433,5.5,1111122 
DISL,ioos:station:DISL:PPTA:1,2013-11-03T01:30:00Z,30.2791,-87.5561,1.418,5.44,1111122 
DISL,ioos:station:DISL:PPTA:1,2013-11-03T02:00:00Z,30.2791,-87.5561,1.428,5.22,1111122 
DISL,ioos:station:DISL:PPTA:1,2013-11-03T02:30:00Z,30.2791,-87.5561,1.428,5.35,1111122 
DISL,ioos:station:DISL:PPTA:1,2013-11-03T03:00:00Z,30.2791,-87.5561,1.404,5.46,1111122 
DISL,ioos:station:DISL:PPTA:1,2013-11-03T03:30:00Z,30.2791,-87.5561,1.411,7.04,1111122 
DISL,ioos:station:DISL:PPTA:1,2013-11-03T04:00:00Z,30.2791,-87.5561,1.412,6.82,1111122 
DISL,ioos:station:DISL:PPTA:1,2013-11-03T04:30:00Z,30.2791,-87.5561,1.4,6.52,1111122 
DISL,ioos:station:DISL:PPTA:1,2013-11-03T05:00:00Z,30.2791,-87.5561,1.383,5.99,1111122 
DISL,ioos:station:DISL:PPTA:1,2013-11-03T05:30:00Z,30.2791,-87.5561,1.348,6.4,1111122 
DISL,ioos:station:DISL:PPTA:1,2013-11-03T06:00:00Z,30.2791,-87.5561,1.326,6.34,1111122 
DISL,ioos:station:DISL:PPTA:1,2013-11-03T06:30:00Z,30.2791,-87.5561,1.295,6.36,1111122 
DISL,ioos:station:DISL:PPTA:1,2013-11-03T07:00:00Z,30.2791,-87.5561,1.278,6.56,1111122 
DISL,ioos:station:DISL:PPTA:1,2013-11-03T07:30:00Z,30.2791,-87.5561,1.26,6.47,1111122 
DISL,ioos:station:DISL:PPTA:1,2013-11-03T08:00:00Z,30.2791,-87.5561,1.237,6.7,1111122 
DISL,ioos:station:DISL:PPTA:1,2013-11-03T08:30:00Z,30.2791,-87.5561,1.227,6.9,1111122 
DISL,ioos:station:DISL:PPTA:1,2013-11-03T09:00:00Z,30.2791,-87.5561,1.222,6.93,1111122 
DISL,ioos:station:DISL:PPTA:1,2013-11-03T09:30:00Z,30.2791,-87.5561,1.194,7.03,1111122 
DISL,ioos:station:DISL:PPTA:1,2013-11-03T10:00:00Z,30.2791,-87.5561,1.175,7.06,1111122 
DISL,ioos:station:DISL:PPTA:1,2013-11-03T10:30:00Z,30.2791,-87.5561,1.174,6.99,1111122 
DISL,ioos:station:DISL:PPTA:1,2013-11-03T11:00:00Z,30.2791,-87.5561,1.161,7.06,1111122 
DISL,ioos:station:DISL:PPTA:1,2013-11-03T11:30:00Z,30.2791,-87.5561,1.172,6.93,1111122 
DISL,ioos:station:DISL:PPTA:1,2013-11-03T12:00:00Z,30.2791,-87.5561,1.165,7.0,1111122 
DISL,ioos:station:DISL:PPTA:1,2013-11-03T12:30:00Z,30.2791,-87.5561,1.156,7.04,1111122 
DISL,ioos:station:DISL:PPTA:1,2013-11-03T13:00:00Z,30.2791,-87.5561,1.171,7.07,1111122 
DISL,ioos:station:DISL:PPTA:1,2013-11-03T13:30:00Z,30.2791,-87.5561,1.173,7.09,1111122 
DISL,ioos:station:DISL:PPTA:1,2013-11-03T14:00:00Z,30.2791,-87.5561,1.17,7.16,1111122 
DISL,ioos:station:DISL:PPTA:1,2013-11-03T14:30:00Z,30.2791,-87.5561,1.18,7.19,1111122 
DISL,ioos:station:DISL:PPTA:1,2013-11-03T15:00:00Z,30.2791,-87.5561,1.184,7.08,1111122 
DISL,ioos:station:DISL:PPTA:1,2013-11-03T15:30:00Z,30.2791,-87.5561,1.191,7.1,1111122 
DISL,ioos:station:DISL:PPTA:1,2013-11-03T16:00:00Z,30.2791,-87.5561,1.188,6.85,1111122 
DISL,ioos:station:DISL:PPTA:1,2013-11-03T16:30:00Z,30.2791,-87.5561,1.193,6.78,1111122 
DISL,ioos:station:DISL:PPTA:1,2013-11-03T17:00:00Z,30.2791,-87.5561,1.2,6.93,1111122 
DISL,ioos:station:DISL:PPTA:1,2013-11-03T17:30:00Z,30.2791,-87.5561,1.202,7.11,1111122 
DISL,ioos:station:DISL:PPTA:1,2013-11-03T18:00:00Z,30.2791,-87.5561,1.213,6.52,1111122 
DISL,ioos:station:DISL:PPTA:1,2013-11-03T18:30:00Z,30.2791,-87.5561,1.218,6.59,1111122 
DISL,ioos:station:DISL:PPTA:1,2013-11-03T19:00:00Z,30.2791,-87.5561,1.226,6.48,1111122 
DISL,ioos:station:DISL:PPTA:1,2013-11-03T19:30:00Z,30.2791,-87.5561,1.236,6.28,1111122 
DISL,ioos:station:DISL:PPTA:1,2013-11-03T20:00:00Z,30.2791,-87.5561,1.239,6.32,1111122 
DISL,ioos:station:DISL:PPTA:1,2013-11-03T20:30:00Z,30.2791,-87.5561,1.266,6.27,1111122 
DISL,ioos:station:DISL:PPTA:1,2013-11-03T21:00:00Z,30.2791,-87.5561,1.278,6.45,1111122 
DISL,ioos:station:DISL:PPTA:1,2013-11-03T21:30:00Z,30.2791,-87.5561,1.29,6.35,1111122 
DISL,ioos:station:DISL:PPTA:1,2013-11-03T22:00:00Z,30.2791,-87.5561,1.311,6.27,1111122 
DISL,ioos:station:DISL:PPTA:1,2013-11-03T22:30:00Z,30.2791,-87.5561,1.324,6.29,1111122 
DISL,ioos:station:DISL:PPTA:1,2013-11-03T23:00:00Z,30.2791,-87.5561,1.352,6.09,1111122 
DISL,ioos:station:DISL:PPTA:1,2013-11-03T23:30:00Z,30.2791,-87.5561,1.369,6.03,1111122 
DISL,ioos:station:DISL:PPTA:1,2013-11-04T00:00:00Z,30.2791,-87.5561,1.393,5.92,1111122 
DISL,ioos:station:DISL:PPTA:1,2013-11-04T00:30:00Z,30.2791,-87.5561,1.42,6.21,1111122 
DISL,ioos:station:DISL:PPTA:1,2013-11-04T01:00:00Z,30.2791,-87.5561,1.429,6.07,1111122 
DISL,ioos:station:DISL:PPTA:1,2013-11-04T01:30:00Z,30.2791,-87.5561,1.439,5.84,1111122 
DISL,ioos:station:DISL:PPTA:1,2013-11-04T02:00:00Z,30.2791,-87.5561,1.447,5.77,1111122 
DISL,ioos:station:DISL:PPTA:1,2013-11-04T02:30:00Z,30.2791,-87.5561,1.449,5.71,1111122 
DISL,ioos:station:DISL:PPTA:1,2013-11-04T03:00:00Z,30.2791,-87.5561,1.459,6.66,1111122 
DISL,ioos:station:DISL:PPTA:1,2013-11-04T03:30:00Z,30.2791,-87.5561,1.455,5.73,1111122 
DISL,ioos:station:DISL:PPTA:1,2013-11-04T04:00:00Z,30.2791,-87.5561,1.444,5.61,1111122 
DISL,ioos:station:DISL:PPTA:1,2013-11-04T04:30:00Z,30.2791,-87.5561,1.447,5.78,1111122 
DISL,ioos:station:DISL:PPTA:1,2013-11-04T05:00:00Z,30.2791,-87.5561,1.426,5.87,1111122 
DISL,ioos:station:DISL:PPTA:1,2013-11-04T05:30:00Z,30.2791,-87.5561,1.401,6.92,1111122 
DISL,ioos:station:DISL:PPTA:1,2013-11-04T06:00:00Z,30.2791,-87.5561,1.39,5.81,1111122 
DISL,ioos:station:DISL:PPTA:1,2013-11-04T06:30:00Z,30.2791,-87.5561,1.383,6.41,1111122 
DISL,ioos:station:DISL:PPTA:1,2013-11-04T07:00:00Z,30.2791,-87.5561,1.364,5.96,1111122 
DISL,ioos:station:DISL:PPTA:1,2013-11-04T07:30:00Z,30.2791,-87.5561,1.335,6.09,1111122 
DISL,ioos:station:DISL:PPTA:1,2013-11-04T08:00:00Z,30.2791,-87.5561,1.315,5.89,1111122 
DISL,ioos:station:DISL:PPTA:1,2013-11-04T08:30:00Z,30.2791,-87.5561,1.295,6.36,1111122 
DISL,ioos:station:DISL:PPTA:1,2013-11-04T09:00:00Z,30.2791,-87.5561,1.276,6.13,1111122 
DISL,ioos:station:DISL:PPTA:1,2013-11-04T09:30:00Z,30.2791,-87.5561,1.25,6.45,1111122 
DISL,ioos:station:DISL:PPTA:1,2013-11-04T10:00:00Z,30.2791,-87.5561,1.249,6.68,1111122 
DISL,ioos:station:DISL:PPTA:1,2013-11-04T10:30:00Z,30.2791,-87.5561,1.251,6.82,1111122 
DISL,ioos:station:DISL:PPTA:1,2013-11-04T11:00:00Z,30.2791,-87.5561,1.219,6.81,1111122 
DISL,ioos:station:DISL:PPTA:1,2013-11-04T11:30:00Z,30.2791,-87.5561,1.195,6.91,1111122 
DISL,ioos:station:DISL:PPTA:1,2013-11-04T12:00:00Z,30.2791,-87.5561,1.2,6.82,1111122 
DISL,ioos:station:DISL:PPTA:1,2013-11-04T12:30:00Z,30.2791,-87.5561,1.185,6.85,1111122 
DISL,ioos:station:DISL:PPTA:1,2013-11-04T13:00:00Z,30.2791,-87.5561,1.181,6.99,1111122 
DISL,ioos:station:DISL:PPTA:1,2013-11-04T13:30:00Z,30.2791,-87.5561,1.168,7.13,1111122 
DISL,ioos:station:DISL:PPTA:1,2013-11-04T14:00:00Z,30.2791,-87.5561,1.157,7.18,1111122 
DISL,ioos:station:DISL:PPTA:1,2013-11-04T14:30:00Z,30.2791,-87.5561,1.161,7.25,1111122 
DISL,ioos:station:DISL:PPTA:1,2013-11-04T15:00:00Z,30.2791,-87.5561,1.163,7.36,1111122 
DISL,ioos:station:DISL:PPTA:1,2013-11-04T15:30:00Z,30.2791,-87.5561,1.158,7.39,1111122 
DISL,ioos:station:DISL:PPTA:1,2013-11-04T16:00:00Z,30.2791,-87.5561,1.169,7.49,1111122 
DISL,ioos:station:DISL:PPTA:1,2013-11-04T16:30:00Z,30.2791,-87.5561,1.174,7.53,1111122 
DISL,ioos:station:DISL:PPTA:1,2013-11-04T17:00:00Z,30.2791,-87.5561,1.192,7.73,1111122 
DISL,ioos:station:DISL:PPTA:1,2013-11-04T17:30:00Z,30.2791,-87.5561,1.169,7.73,1111122 
DISL,ioos:station:DISL:PPTA:1,2013-11-04T18:00:00Z,30.2791,-87.5561,1.175,7.81,1111122 
DISL,ioos:station:DISL:PPTA:1,2013-11-04T18:30:00Z,30.2791,-87.5561,1.178,7.88,1111122 
DISL,ioos:station:DISL:PPTA:1,2013-11-04T19:00:00Z,30.2791,-87.5561,1.19,8.11,1111122 
DISL,ioos:station:DISL:PPTA:1,2013-11-04T19:30:00Z,30.2791,-87.5561,1.2,8.1,1111122 
DISL,ioos:station:DISL:PPTA:1,2013-11-04T20:00:00Z,30.2791,-87.5561,1.205,8.46,1111122 
DISL,ioos:station:DISL:PPTA:1,2013-11-04T20:30:00Z,30.2791,-87.5561,1.227,7.85,1111122 
DISL,ioos:station:DISL:PPTA:1,2013-11-04T21:00:00Z,30.2791,-87.5561,1.226,7.33,1111122 
DISL,ioos:station:DISL:PPTA:1,2013-11-04T21:30:00Z,30.2791,-87.5561,1.252,7.14,1111122 
DISL,ioos:station:DISL:PPTA:1,2013-11-04T22:00:00Z,30.2791,-87.5561,1.276,7.01,1111122 
DISL,ioos:station:DISL:PPTA:1,2013-11-04T22:30:00Z,30.2791,-87.5561,1.289,6.83,1111122 
DISL,ioos:station:DISL:PPTA:1,2013-11-04T23:00:00Z,30.2791,-87.5561,1.32,6.76,1111122 
DISL,ioos:station:DISL:PPTA:1,2013-11-04T23:30:00Z,30.2791,-87.5561,1.348,6.58,1111122 
DISL,ioos:station:DISL:PPTA:1,2013-11-05T00:00:00Z,30.2791,-87.5561,1.379,6.51,1111122 
DISL,ioos:station:DISL:PPTA:1,2013-11-05T00:30:00Z,30.2791,-87.5561,1.401,6.58,1111122 
DISL,ioos:station:DISL:PPTA:1,2013-11-05T01:00:00Z,30.2791,-87.5561,1.436,6.46,1111122 
DISL,ioos:station:DISL:PPTA:1,2013-11-05T01:30:00Z,30.2791,-87.5561,1.459,6.55,1111122 
DISL,ioos:station:DISL:PPTA:1,2013-11-05T02:00:00Z,30.2791,-87.5561,1.478,6.45,1111122 
DISL,ioos:station:DISL:PPTA:1,2013-11-05T02:30:00Z,30.2791,-87.5561,1.497,6.49,1111122 
DISL,ioos:station:DISL:PPTA:1,2013-11-05T03:00:00Z,30.2791,-87.5561,1.499,6.51,1111122 
DISL,ioos:station:DISL:PPTA:1,2013-11-05T03:30:00Z,30.2791,-87.5561,1.486,6.41,1111122 
DISL,ioos:station:DISL:PPTA:1,2013-11-05T04:00:00Z,30.2791,-87.5561,1.496,6.56,1111122 
DISL,ioos:station:DISL:PPTA:1,2013-11-05T04:30:00Z,30.2791,-87.5561,1.494,6.53,1111122 
DISL,ioos:station:DISL:PPTA:1,2013-11-05T05:00:00Z,30.2791,-87.5561,1.497,6.63,1111122 
DISL,ioos:station:DISL:PPTA:1,2013-11-05T05:30:00Z,30.2791,-87.5561,1.54,6.7,1111122 
DISL,ioos:station:DISL:PPTA:1,2013-11-05T06:00:00Z,30.2791,-87.5561,1.525,6.74,1111122 
DISL,ioos:station:DISL:PPTA:1,2013-11-05T06:30:00Z,30.2791,-87.5561,1.537,6.9,1111122 
DISL,ioos:station:DISL:PPTA:1,2013-11-05T07:00:00Z,30.2791,-87.5561,1.49,6.85,1111122 
DISL,ioos:station:DISL:PPTA:1,2013-11-05T07:30:00Z,30.2791,-87.5561,1.462,6.86,1111122 
DISL,ioos:station:DISL:PPTA:1,2013-11-05T08:00:00Z,30.2791,-87.5561,1.432,7.04,1111122 
DISL,ioos:station:DISL:PPTA:1,2013-11-05T08:30:00Z,30.2791,-87.5561,1.42,7.29,1111122 
DISL,ioos:station:DISL:PPTA:1,2013-11-05T09:00:00Z,30.2791,-87.5561,1.403,7.3,1111122 
DISL,ioos:station:DISL:PPTA:1,2013-11-05T09:30:00Z,30.2791,-87.5561,1.392,7.21,1111122 
DISL,ioos:station:DISL:PPTA:1,2013-11-05T10:00:00Z,30.2791,-87.5561,1.361,7.23,1111122 
DISL,ioos:station:DISL:PPTA:1,2013-11-05T10:30:00Z,30.2791,-87.5561,1.364,6.98,1111122 
DISL,ioos:station:DISL:PPTA:1,2013-11-05T11:00:00Z,30.2791,-87.5561,1.342,7.04,1111122 
DISL,ioos:station:DISL:PPTA:1,2013-11-05T11:30:00Z,30.2791,-87.5561,1.331,7.07,1111122 
DISL,ioos:station:DISL:PPTA:1,2013-11-05T12:00:00Z,30.2791,-87.5561,1.316,7.12,1111122 
DISL,ioos:station:DISL:PPTA:1,2013-11-05T12:30:00Z,30.2791,-87.5561,1.293,7.12,1111122 
DISL,ioos:station:DISL:PPTA:1,2013-11-05T13:00:00Z,30.2791,-87.5561,1.28,7.19,1111122 
DISL,ioos:station:DISL:PPTA:1,2013-11-05T13:30:00Z,30.2791,-87.5561,1.305,7.25,1111122 
DISL,ioos:station:DISL:PPTA:1,2013-11-05T14:00:00Z,30.2791,-87.5561,1.294,7.26,1111122 
DISL,ioos:station:DISL:PPTA:1,2013-11-05T14:30:00Z,30.2791,-87.5561,1.295,7.33,1111122 
DISL,ioos:station:DISL:PPTA:1,2013-11-05T15:00:00Z,30.2791,-87.5561,1.281,7.36,1111122 
DISL,ioos:station:DISL:PPTA:1,2013-11-05T15:30:00Z,30.2791,-87.5561,1.269,7.39,1111122 
DISL,ioos:station:DISL:PPTA:1,2013-11-05T16:00:00Z,30.2791,-87.5561,1.266,7.42,1111122 
DISL,ioos:station:DISL:PPTA:1,2013-11-05T16:30:00Z,30.2791,-87.5561,1.267,7.48,1111122 
DISL,ioos:station:DISL:PPTA:1,2013-11-05T17:00:00Z,30.2791,-87.5561,1.258,7.69,1111122 
DISL,ioos:station:DISL:PPTA:1,2013-11-05T17:30:00Z,30.2791,-87.5561,1.271,7.9,1111122 
DISL,ioos:station:DISL:PPTA:1,2013-11-05T18:00:00Z,30.2791,-87.5561,1.262,7.85,1111122 
DISL,ioos:station:DISL:PPTA:1,2013-11-05T18:30:00Z,30.2791,-87.5561,1.248,8.0,1111122 
DISL,ioos:station:DISL:PPTA:1,2013-11-05T19:00:00Z,30.2791,-87.5561,1.258,7.94,1111122 
DISL,ioos:station:DISL:PPTA:1,2013-11-05T19:30:00Z,30.2791,-87.5561,1.263,7.98,1111122 
DISL,ioos:station:DISL:PPTA:1,2013-11-05T20:00:00Z,30.2791,-87.5561,1.258,8.14,1111122 
DISL,ioos:station:DISL:PPTA:1,2013-11-05T20:30:00Z,30.2791,-87.5561,1.3,8.44,1111122 
DISL,ioos:station:DISL:PPTA:1,2013-11-05T21:00:00Z,30.2791,-87.5561,1.299,8.25,1111122 
DISL,ioos:station:DISL:PPTA:1,2013-11-05T21:30:00Z,30.2791,-87.5561,1.306,8.18,1111122 
DISL,ioos:station:DISL:PPTA:1,2013-11-05T22:00:00Z,30.2791,-87.5561,1.305,8.0,1111122 
DISL,ioos:station:DISL:PPTA:1,2013-11-05T22:30:00Z,30.2791,-87.5561,1.335,7.78,1111122 
DISL,ioos:station:DISL:PPTA:1,2013-11-05T23:00:00Z,30.2791,-87.5561,1.362,7.32,1111122 
DISL,ioos:station:DISL:PPTA:1,2013-11-05T23:30:00Z,30.2791,-87.5561,1.372,7.3,1111122 
DISL,ioos:station:DISL:PPTA:1,2013-11-06T00:00:00Z,30.2791,-87.5561,1.412,7.07,1111122 
DISL,ioos:station:DISL:PPTA:1,2013-11-06T00:30:00Z,30.2791,-87.5561,1.454,6.92,1111122 
DISL,ioos:station:DISL:PPTA:1,2013-11-06T01:00:00Z,30.2791,-87.5561,1.472,6.89,1111122 
DISL,ioos:station:DISL:PPTA:1,2013-11-06T01:30:00Z,30.2791,-87.5561,1.493,6.84,1111122 
DISL,ioos:station:DISL:PPTA:1,2013-11-06T02:00:00Z,30.2791,-87.5561,1.517,6.95,1111122 
DISL,ioos:station:DISL:PPTA:1,2013-11-06T02:30:00Z,30.2791,-87.5561,1.536,6.95,1111122 
DISL,ioos:station:DISL:PPTA:1,2013-11-06T03:00:00Z,30.2791,-87.5561,1.544,6.92,1111122 
DISL,ioos:station:DISL:PPTA:1,2013-11-06T03:30:00Z,30.2791,-87.5561,1.562,6.73,1111122 
DISL,ioos:station:DISL:PPTA:1,2013-11-06T04:00:00Z,30.2791,-87.5561,1.571,6.72,1111122 
DISL,ioos:station:DISL:PPTA:1,2013-11-06T04:30:00Z,30.2791,-87.5561,1.565,6.76,1111122 
DISL,ioos:station:DISL:PPTA:1,2013-11-06T05:00:00Z,30.2791,-87.5561,1.564,6.76,1111122 
DISL,ioos:station:DISL:PPTA:1,2013-11-06T05:30:00Z,30.2791,-87.5561,1.577,6.8,1111122 
DISL,ioos:station:DISL:PPTA:1,2013-11-06T06:00:00Z,30.2791,-87.5561,1.575,6.82,1111122 
DISL,ioos:station:DISL:PPTA:1,2013-11-06T06:30:00Z,30.2791,-87.5561,1.58,6.74,1111122 
DISL,ioos:station:DISL:PPTA:1,2013-11-06T07:00:00Z,30.2791,-87.5561,1.524,6.72,1111122 
DISL,ioos:station:DISL:PPTA:1,2013-11-06T07:30:00Z,30.2791,-87.5561,1.52,6.67,1111122 
DISL,ioos:station:DISL:PPTA:1,2013-11-06T08:00:00Z,30.2791,-87.5561,1.513,6.94,1111122 
DISL,ioos:station:DISL:PPTA:1,2013-11-06T08:30:00Z,30.2791,-87.5561,1.469,6.72,1111122 
DISL,ioos:station:DISL:PPTA:1,2013-11-06T09:00:00Z,30.2791,-87.5561,1.477,7.37,1111122 
DISL,ioos:station:DISL:PPTA:1,2013-11-06T09:30:00Z,30.2791,-87.5561,1.441,7.1,1111122 
DISL,ioos:station:DISL:PPTA:1,2013-11-06T10:00:00Z,30.2791,-87.5561,1.419,6.83,1111122 
DISL,ioos:station:DISL:PPTA:1,2013-11-06T10:30:00Z,30.2791,-87.5561,1.401,6.85,1111122 
DISL,ioos:station:DISL:PPTA:1,2013-11-06T11:00:00Z,30.2791,-87.5561,1.384,6.72,1111122 
DISL,ioos:station:DISL:PPTA:1,2013-11-06T11:30:00Z,30.2791,-87.5561,1.377,6.73,1111122 
DISL,ioos:station:DISL:PPTA:1,2013-11-06T12:00:00Z,30.2791,-87.5561,1.353,6.86,1111122 
DISL,ioos:station:DISL:PPTA:1,2013-11-06T12:30:00Z,30.2791,-87.5561,1.336,6.69,1111122 
DISL,ioos:station:DISL:PPTA:1,2013-11-06T13:00:00Z,30.2791,-87.5561,1.328,6.87,1111122 
DISL,ioos:station:DISL:PPTA:1,2013-11-06T13:30:00Z,30.2791,-87.5561,1.327,7.0,1111122 
DISL,ioos:station:DISL:PPTA:1,2013-11-06T14:00:00Z,30.2791,-87.5561,1.308,7.04,1111122 
DISL,ioos:station:DISL:PPTA:1,2013-11-06T14:30:00Z,30.2791,-87.5561,1.291,7.07,1111122 
DISL,ioos:station:DISL:PPTA:1,2013-11-06T15:00:00Z,30.2791,-87.5561,1.285,7.3,1111122 
DISL,ioos:station:DISL:PPTA:1,2013-11-06T15:30:00Z,30.2791,-87.5561,1.27,7.41,1111122 